• In Russia
  • List of Countries
  • For 7 days
  • Water Temperature
  • Satellite Maps
  • Weather Map
  • Weather Widgets
  • user-avatar
    Login

    Hourly Weather Kalgoorlie

    Today, 25 May, Thursday

    Time Temperature Precipitation Wind Pressure Humidity
    00:00 +12°C° 0 mm 3 mps 733 mmHg 69%
    01:00 +12°C° 0 mm 3 mps 733 mmHg 72%
    02:00 +12°C° 0 mm 3 mps 733 mmHg 76%
    03:00 +11°C° 0 mm 3 mps 733 mmHg 78%
    04:00 +11°C° 0 mm 3 mps 733 mmHg 79%
    05:00 +11°C° 0 mm 3 mps 733 mmHg 81%
    06:00 +11°C° 0 mm 3 mps 733 mmHg 79%
    07:00 +12°C° 0 mm 3 mps 734 mmHg 77%
    08:00 +12°C° 0 mm 3 mps 734 mmHg 75%
    09:00 +14°C° 0 mm 3 mps 734 mmHg 65%
    10:00 +17°C° 0 mm 3 mps 734 mmHg 55%
    11:00 +19°C° 0 mm 4 mps 734 mmHg 45%
    12:00 +20°C° 0 mm 4 mps 733 mmHg 40%
    13:00 +21°C° 0 mm 3 mps 733 mmHg 35%
    14:00 +22°C° 0 mm 3 mps 732 mmHg 31%
    15:00 +20°C° 0 mm 3 mps 732 mmHg 32%
    16:00 +19°C° 0 mm 2 mps 732 mmHg 34%
    17:00 +17°C° 0 mm 2 mps 732 mmHg 36%
    18:00 +17°C° 0 mm 2 mps 732 mmHg 36%
    19:00 +16°C° 0 mm 2 mps 732 mmHg 36%
    20:00 +16°C° 0 mm 2 mps 732 mmHg 36%
    21:00 +14°C° 0 mm 3 mps 731 mmHg 36%
    22:00 +14°C° 0 mm 3 mps 731 mmHg 36%
    23:00 +14°C° 0 mm 3 mps 731 mmHg 36%

    Tomorrow, 26 May, Friday

    Time Temperature Precipitation Wind Pressure Humidity
    00:00 +13°C° 0 mm 3 mps 731 mmHg 36%
    01:00 +13°C° 0 mm 3 mps 731 mmHg 37%
    02:00 +12°C° 0 mm 3 mps 731 mmHg 38%
    03:00 +12°C° 0 mm 3 mps 731 mmHg 39%
    04:00 +12°C° 0 mm 3 mps 731 mmHg 40%
    05:00 +11°C° 0 mm 3 mps 731 mmHg 41%
    06:00 +12°C° 0 mm 3 mps 731 mmHg 41%
    07:00 +12°C° 0 mm 3 mps 731 mmHg 42%
    08:00 +13°C° 0 mm 3 mps 732 mmHg 43%
    09:00 +14°C° 0 mm 3 mps 732 mmHg 41%
    10:00 +17°C° 0 mm 4 mps 732 mmHg 40%
    11:00 +19°C° 0 mm 5 mps 732 mmHg 39%
    12:00 +20°C° 0 mm 5 mps 731 mmHg 38%
    13:00 +21°C° 0 mm 5 mps 731 mmHg 36%
    14:00 +21°C° 0 mm 5 mps 730 mmHg 35%
    15:00 +20°C° 0 mm 5 mps 731 mmHg 43%
    16:00 +19°C° 0 mm 4 mps 731 mmHg 51%
    17:00 +17°C° 0 mm 4 mps 731 mmHg 59%
    18:00 +17°C° 0 mm 4 mps 732 mmHg 65%
    19:00 +15°C° 0 mm 4 mps 732 mmHg 70%
    20:00 +14°C° 0 mm 3 mps 733 mmHg 76%
    21:00 +13°C° 0 mm 3 mps 733 mmHg 77%
    22:00 +13°C° 0 mm 3 mps 733 mmHg 78%
    23:00 +12°C° 0 mm 3 mps 733 mmHg 78%

    Day after tomorrow, 27 May, Saturday

    Time Temperature Precipitation Wind Pressure Humidity
    00:00 +11°C° 0 mm 3 mps 733 mmHg 78%
    01:00 +10°C° 0 mm 3 mps 733 mmHg 78%
    02:00 +10°C° 0 mm 3 mps 733 mmHg 78%
    03:00 +9°C° 0 mm 3 mps 733 mmHg 80%
    04:00 +9°C° 0 mm 3 mps 734 mmHg 82%
    05:00 +8°C° 0 mm 3 mps 734 mmHg 83%
    06:00 +9°C° 0 mm 3 mps 734 mmHg 81%
    07:00 +9°C° 0 mm 3 mps 735 mmHg 79%
    08:00 +9°C° 0 mm 3 mps 735 mmHg 76%
    09:00 +11°C° 0 mm 3 mps 735 mmHg 68%
    10:00 +12°C° 0 mm 3 mps 735 mmHg 60%
    11:00 +14°C° 0 mm 3 mps 735 mmHg 52%
    12:00 +14°C° 0 mm 3 mps 735 mmHg 49%
    13:00 +16°C° 0 mm 3 mps 735 mmHg 46%
    14:00 +17°C° 0 mm 3 mps 734 mmHg 43%
    15:00 +16°C° 0 mm 3 mps 734 mmHg 47%
    16:00 +14°C° 0 mm 4 mps 735 mmHg 50%
    17:00 +13°C° 0 mm 4 mps 735 mmHg 54%
    18:00 +12°C° 0 mm 4 mps 735 mmHg 57%
    19:00 +12°C° 0 mm 3 mps 736 mmHg 60%
    20:00 +11°C° 0 mm 3 mps 737 mmHg 63%
    21:00 +10°C° 0 mm 3 mps 737 mmHg 65%
    22:00 +10°C° 0 mm 3 mps 737 mmHg 67%
    23:00 +9°C° 0 mm 3 mps 737 mmHg 69%

    28 May, Sunday

    Time Temperature Precipitation Wind Pressure Humidity
    00:00 +9°C° 0 mm 3 mps 737 mmHg 72%
    01:00 +9°C° 0 mm 3 mps 737 mmHg 74%
    02:00 +8°C° 0 mm 3 mps 736 mmHg 77%
    03:00 +8°C° 0 mm 3 mps 736 mmHg 80%
    04:00 +7°C° 0 mm 3 mps 737 mmHg 83%
    05:00 +7°C° 0 mm 3 mps 737 mmHg 86%
    06:00 +8°C° 0 mm 3 mps 737 mmHg 84%
    07:00 +8°C° 0 mm 3 mps 738 mmHg 82%
    08:00 +8°C° 0 mm 3 mps 738 mmHg 80%
    09:00 +10°C° 0 mm 3 mps 738 mmHg 71%
    10:00 +12°C° 0 mm 3 mps 738 mmHg 62%
    11:00 +13°C° 0 mm 3 mps 738 mmHg 53%
    12:00 +14°C° 0 mm 3 mps 737 mmHg 49%
    13:00 +16°C° 0 mm 2 mps 737 mmHg 46%
    14:00 +16°C° 0 mm 2 mps 736 mmHg 42%
    15:00 +15°C° 0 mm 2 mps 736 mmHg 45%
    16:00 +15°C° 0 mm 2 mps 736 mmHg 48%
    17:00 +14°C° 0 mm 2 mps 736 mmHg 50%
    18:00 +13°C° 0 mm 2 mps 737 mmHg 53%
    19:00 +12°C° 0 mm 2 mps 737 mmHg 55%
    20:00 +11°C° 0 mm 3 mps 738 mmHg 57%
    21:00 +10°C° 0 mm 3 mps 737 mmHg 59%
    22:00 +10°C° 0 mm 3 mps 737 mmHg 61%
    23:00 +9°C° 0 mm 3 mps 737 mmHg 64%

    29 May, Monday

    Time Temperature Precipitation Wind Pressure Humidity
    00:00 +9°C° 0 mm 3 mps 737 mmHg 65%
    01:00 +9°C° 0 mm 3 mps 737 mmHg 67%
    02:00 +8°C° 0 mm 3 mps 736 mmHg 69%
    03:00 +8°C° 0 mm 3 mps 736 mmHg 70%
    04:00 +8°C° 0 mm 3 mps 736 mmHg 71%
    05:00 +8°C° 0 mm 3 mps 736 mmHg 72%
    06:00 +8°C° 0 mm 3 mps 736 mmHg 70%
    07:00 +9°C° 0 mm 3 mps 737 mmHg 68%
    08:00 +9°C° 0 mm 3 mps 737 mmHg 66%
    09:00 +11°C° 0 mm 3 mps 737 mmHg 58%
    10:00 +14°C° 0 mm 3 mps 737 mmHg 51%
    11:00 +17°C° 0 mm 3 mps 737 mmHg 44%
    12:00 +18°C° 0 mm 2 mps 736 mmHg 42%
    13:00 +19°C° 0 mm 2 mps 736 mmHg 40%
    14:00 +20°C° 0 mm 1 mps 735 mmHg 39%
    15:00 +18°C° 0 mm 2 mps 736 mmHg 42%
    16:00 +17°C° 0 mm 2 mps 736 mmHg 46%
    17:00 +16°C° 0 mm 2 mps 736 mmHg 49%
    18:00 +14°C° 0 mm 3 mps 737 mmHg 50%
    19:00 +13°C° 0 mm 3 mps 737 mmHg 51%
    20:00 +12°C° 0 mm 4 mps 737 mmHg 53%
    21:00 +12°C° 0 mm 4 mps 737 mmHg 54%
    22:00 +11°C° 0 mm 4 mps 737 mmHg 56%
    23:00 +11°C° 0 mm 4 mps 738 mmHg 57%

    30 May, Tuesday

    Time Temperature Precipitation Wind Pressure Humidity
    00:00 +10°C° 0 mm 4 mps 738 mmHg 60%
    01:00 +10°C° 0 mm 4 mps 738 mmHg 62%
    02:00 +8°C° 0 mm 4 mps 738 mmHg 64%
    03:00 +8°C° 0 mm 4 mps 738 mmHg 66%
    04:00 +8°C° 0 mm 4 mps 738 mmHg 68%
    05:00 +7°C° 0 mm 4 mps 738 mmHg 70%
    06:00 +8°C° 0 mm 5 mps 739 mmHg 68%
    07:00 +8°C° 0 mm 5 mps 739 mmHg 66%
    08:00 +9°C° 0 mm 6 mps 739 mmHg 64%
    09:00 +11°C° 0 mm 6 mps 739 mmHg 57%
    10:00 +14°C° 0 mm 7 mps 739 mmHg 50%
    11:00 +15°C° 0 mm 7 mps 738 mmHg 44%
    12:00 +16°C° 0 mm 7 mps 738 mmHg 42%
    13:00 +17°C° 0 mm 7 mps 737 mmHg 40%
    14:00 +19°C° 0 mm 6 mps 737 mmHg 38%
    15:00 +17°C° 0 mm 6 mps 737 mmHg 41%
    16:00 +16°C° 0 mm 5 mps 737 mmHg 44%
    17:00 +15°C° 0 mm 4 mps 737 mmHg 47%
    18:00 +14°C° 0 mm 4 mps 737 mmHg 49%
    19:00 +13°C° 0 mm 4 mps 738 mmHg 51%
    20:00 +12°C° 0 mm 4 mps 738 mmHg 54%
    21:00 +12°C° 0 mm 4 mps 738 mmHg 55%
    22:00 +11°C° 0 mm 4 mps 738 mmHg 57%
    23:00 +11°C° 0 mm 4 mps 738 mmHg 58%
    Show more